Zurück zum Katalog

CZ-2C DEB

AktivPO
NORAD 39224·DEBRIS·🇨🇳 China

Gestartet Jul 15, 2013 von Jiuquan Satellite Launch Center

Loading…

Nächste Überflüge (nächste 24 Stunden)

TLE

AktuellSource: Space-Track

Epoche: Sep 14, 2026, 15:31 UTC

1 39224U 13035E   26257.64706447  .00001588  00000-0  49174-3 0  9992
2 39224  97.9438  24.7558 0145721 253.8299 104.6810 14.36558851680337

Verfolge CZ-2C DEB in Echtzeit mit AllMySat

Download on the App Store